[[{"header":{"parameterUnit":"m.s-1","parameterCategory":2,"la1":30.2991,"la2":30.254,"lo1":-89.0895,"lo2":-89.0444,"dy":0.0017,"dx":0.0017,"nx":28,"ny":28,"refTime":"2024-09-27T21:00:00:Z","depth":"0","parameterNumber":2,"parameterNumberName":"U-component_of_CURRENTS"},"data":[0,0,0,0,0,0,0,0,0,0,0,0,0,0,0,0,0,0,0,0,0,0,0,0,0,0,0,0,0,0,0,0,0,0,0,0,0,0,0,0,0,0,0,0,0,0,0,0,0,0,0,0,0,0,0,0,0,0,0.2902,0.2902,0,0.2923,0.2923,0.2923,0.2905,0.2904,0.2904,0.2903,0.2868,0.2868,0.2867,0,0,0,0,0,0,0,0,0,0,0,0,0,0.2842,0.2843,0.2902,0.2902,0.2903,0.2923,0.2923,0.2923,0.2905,0.2904,0.2903,0.2903,0.2868,0.2868,0.2867,0,0,0,0,0,0,0,0,0,0,0,0,0,0.2864,0.2844,0.2902,0.2898,0.2898,0.2923,0.2923,0.2923,0.2905,0.2904,0.2903,0.2903,0.2868,0.2868,0.2867,0.288,0,0,0.2865,0.2865,0,0,0,0,0,0,0,0,0.2863,0.2866,0.2898,0.2898,0.2898,0.2913,0.289,0.2907,0.2905,0.29,0.2903,0.2902,0.288,0.2878,0.2881,0.2878,0.2876,0.2865,0.2865,0.2864,0.2864,0,0,0,0,0,0,0,0.2861,0.2865,0.2908,0.2899,0.2899,0.2894,0.2896,0.2893,0.2891,0.29,0.2899,0.2906,0.2879,0.2882,0.288,0.2876,0.2865,0.2865,0.2864,0.2864,0.2957,0.2959,0,0,0,0,0,0,0.2865,0.2864,0.2907,0.2909,0.2881,0.2896,0.2898,0.2907,0.2892,0.2891,0.2907,0.2905,0.2884,0.2881,0.2879,0.2943,0.2864,0.2864,0.2864,0.2954,0.2957,0.296,0,0,0,0,0,0,0.2864,0.2869,0.2906,0.2888,0.2893,0.2898,0.2908,0.2908,0.2916,0.2898,0.2895,0.2916,0.2883,0.288,0.2901,0.2939,0.2864,0.2863,0.2951,0.2955,0.2959,0.3037,0,0,0,0,0,0,0.2862,0.2868,0.2878,0.2889,0.2894,0.2934,0.2909,0.2909,0.2923,0.2921,0.2906,0.2901,0.2882,0.2903,0.2901,0.2937,0.2863,0.2947,0.2953,0.2958,0.3031,0.3044,0.3055,0,0,0,0,0,0.286,0.2876,0.2878,0.2883,0.2907,0.2935,0.2938,0.2937,0.2924,0.2939,0.2937,0.2902,0.2936,0.2905,0.2902,0.2938,0.2944,0.2951,0.2957,0.3026,0.3041,0.3054,0,0,0,0,0,0,0.2863,0.2877,0.2878,0.2901,0.2923,0.2933,0.2946,0.2946,0.2956,0.2951,0.2929,0.2927,0.2964,0.2947,0.2913,0.2986,0.2938,0.2944,0.2992,0.3006,0.3017,0.3026,0.2862,0,0,0,0,0,0.2868,0.2878,0.29,0.2919,0.2931,0.2941,0.2952,0.2954,0.2965,0.2968,0.2958,0.2963,0.299,0.2992,0.3003,0.3032,0.305,0.306,0.3072,0.3082,0.3091,0.3181,0.3202,0.2981,0.2981,0.2981,0,0,0.2878,0.2884,0.2893,0.292,0.2933,0.2961,0.2945,0.2969,0.2997,0.2962,0.2991,0.3,0.301,0.3052,0.3067,0.3038,0.3154,0.309,0.3098,0.3102,0.319,0.3212,0.3231,0.2986,0.2985,0.2984,0,0,0.2893,0.2908,0.2918,0.2939,0.2963,0.2979,0.299,0.3008,0.3023,0.3053,0.3054,0.3091,0.3098,0.3132,0.3146,0.3232,0.3217,0.3234,0.329,0.3379,0.3397,0.3414,0.3456,0.3476,0.3234,0.3235,0.3235,0,0.2907,0.2921,0.293,0.2947,0.2975,0.299,0.3023,0.3047,0.307,0.3104,0.307,0.3149,0.3143,0.3235,0.3263,0.3257,0.3291,0.323,0.3394,0.341,0.3426,0.3465,0.3486,0.3239,0.3239,0.3238,0.3238,0,0.2925,0.2945,0.2959,0.2987,0.302,0.3053,0.3092,0.3127,0.314,0.3168,0.3249,0.3258,0.3308,0.332,0.3308,0.343,0.3412,0.3401,0.3353,0.3453,0.3488,0.3508,0.3246,0.3244,0.3243,0.3242,0,0,0.2945,0.2966,0.2972,0.2992,0.3046,0.3075,0.3143,0.3219,0.3275,0.3301,0.338,0.3432,0.3443,0.3464,0.3472,0.3535,0.366,0.3513,0.3516,0.3546,0.3837,0.3725,0.3735,0.3685,0.3689,0.3692,0.3813,0,0.2964,0.2983,0.3008,0.3064,0.3089,0.3145,0.3208,0.3279,0.3336,0.3412,0.3464,0.3529,0.35,0.3526,0.3598,0.3649,0.3719,0.3627,0.3744,0.3746,0.3628,0.3758,0.359,0.3676,0.3833,0.3836,0.3838,0,0.2979,0.299,0.3026,0.3098,0.3119,0.316,0.328,0.3346,0.347,0.3517,0.3607,0.3635,0.3743,0.369,0.3847,0.3793,0.3827,0.3854,0.3859,0.3741,0.3673,0.3605,0.3706,0.3676,0.3869,0.3867,0.3864,0,0.2964,0.3017,0.3041,0.3063,0.314,0.3186,0.325,0.3372,0.3446,0.3591,0.3643,0.3775,0.3831,0.392,0.3957,0.3924,0.411,0.4071,0.4007,0.3997,0.3868,0.384,0.3943,0.4198,0.4198,0.4198,0.4197,0,0.2974,0.3003,0.3027,0.3039,0.31,0.3172,0.3269,0.3359,0.3493,0.3574,0.3689,0.3759,0.3895,0.3991,0.4024,0.4077,0.4174,0.4045,0.4042,0.3887,0.3861,0.3835,0.3791,0.4202,0.4201,0.42,0.4199,0,0.2961,0.2971,0.3003,0.3062,0.3084,0.3131,0.3255,0.3327,0.3461,0.3572,0.3614,0.379,0.3899,0.4004,0.4149,0.4145,0.4099,0.42,0.3982,0.3949,0.381,0.3774,0.3679,0.3578,0.4151,0.415,0.4148,0,0.2951,0.2957,0.2992,0.3003,0.3028,0.3101,0.315,0.3294,0.3369,0.3558,0.3598,0.3751,0.3805,0.3987,0.4028,0.4094,0.4023,0.3989,0.3888,0.3807,0.3769,0.3611,0.3522,0.3754,0.3749,0.3746,0.3743,0,0.2943,0.2947,0.2958,0.2962,0.2993,0.3041,0.3117,0.3157,0.3314,0.3386,0.3479,0.3535,0.3702,0.3715,0.3829,0.384,0.3792,0.3908,0.3914,0.3543,0.3293,0.319,0.3646,0.3709,0.3712,0.3715,0.3717,0.3718,0.2922,0.2918,0.2907,0.2911,0.2937,0.2936,0.291,0.299,0.3038,0.3089,0.3261,0.3293,0.3472,0.3581,0.3577,0.3548,0.3516,0.3494,0.3483,0.3352,0.317,0.3521,0.3516,0.3519,0.352,0.3522,0.3524,0,0.2863,0.2851,0.2859,0.2814,0.2773,0.2828,0.2843,0.2783,0.2731,0.2873,0.2907,0.3047,0.309,0.3228,0.3297,0.3206,0.304,0.3147,0.2937,0.2892,0.3312,0.3212,0.3032,0.3032,0.3032,0.3032,0.3032,0.3032,0.2822,0.2777,0.2765,0.264,0.2603,0.2484,0.2437,0.2385,0.2439,0.2452,0.2527,0.265,0.2965,0.3117,0.3094,0.3003,0.283,0.2644,0.2691,0.3059,0.3092,0.3123,0.3026,0.2809,0.2809,0.2146,0.2141,0.2138]},{"header":{"parameterUnit":"m.s-1","parameterCategory":2,"la1":30.2991,"la2":30.254,"lo1":-89.0895,"lo2":-89.0444,"dy":0.0017,"dx":0.0017,"nx":28,"ny":28,"refTime":"2024-09-27T21:00:00:Z","depth":"0","parameterNumber":3,"parameterNumberName":"V-component_of_CURRENTS"},"data":[0,0,0,0,0,0,0,0,0,0,0,0,0,0,0,0,0,0,0,0,0,0,0,0,0,0,0,0,0,0,0,0,0,0,0,0,0,0,0,0,0,0,0,0,0,0,0,0,0,0,0,0,0,0,0,0,0,0,0.029,0.0289,0,0.0223,0.0222,0.0221,0.0173,0.0173,0.0172,0.0172,0.01,0.0098,0.0096,0,0,0,0,0,0,0,0,0,0,0,0,0,0.0327,0.0327,0.029,0.0289,0.0289,0.0223,0.0222,0.0221,0.0173,0.0173,0.0172,0.0172,0.01,0.0098,0.0096,0,0,0,0,0,0,0,0,0,0,0,0,0,0.029,0.0327,0.029,0.0258,0.0254,0.0223,0.0222,0.022,0.0173,0.0173,0.0172,0.0172,0.0101,0.0098,0.0096,0.0089,0,0,0.0088,0.0087,0,0,0,0,0,0,0,0,0.0292,0.0288,0.0263,0.026,0.0256,0.0207,0.0208,0.0176,0.0173,0.0203,0.0172,0.0172,0.0136,0.0131,0.0117,0.0085,0.0082,0.0088,0.0086,0.0085,0.0085,0,0,0,0,0,0,0,0.0295,0.0291,0.0262,0.0263,0.0258,0.0229,0.0224,0.0202,0.0172,0.02,0.0197,0.0191,0.0134,0.012,0.0115,0.0081,0.0088,0.0086,0.0084,0.0083,0.0054,0.0054,0,0,0,0,0,0,0.0308,0.0293,0.0264,0.026,0.0275,0.0229,0.0223,0.0222,0.0172,0.0164,0.0192,0.0189,0.0124,0.0118,0.0112,0.0128,0.0085,0.0083,0.0082,0.0053,0.0054,0.0055,0,0,0,0,0,0,0.031,0.0307,0.0267,0.0276,0.0269,0.023,0.0228,0.0221,0.0209,0.0166,0.0157,0.0188,0.0124,0.0116,0.0101,0.0123,0.0082,0.008,0.0052,0.0053,0.0054,0.0141,0,0,0,0,0,0,0.0311,0.0308,0.0314,0.0277,0.0269,0.0259,0.0229,0.022,0.0207,0.0203,0.016,0.0153,0.0123,0.0105,0.0098,0.0119,0.0078,0.0051,0.0053,0.0054,0.0137,0.0145,0.0151,0,0,0,0,0,0.0313,0.0327,0.0315,0.0311,0.0279,0.026,0.0254,0.0223,0.0208,0.0209,0.018,0.0154,0.0109,0.0103,0.0096,0.0116,0.0051,0.0052,0.0054,0.0134,0.0143,0.0151,0,0,0,0,0,0,0.0346,0.0323,0.0309,0.0315,0.0293,0.0253,0.0252,0.023,0.0207,0.0205,0.0161,0.0152,0.0149,0.0119,0.0114,0.0111,0.0076,0.0077,0.014,0.0148,0.0155,0.0174,0.0076,0,0,0,0,0,0.0357,0.0362,0.0331,0.0337,0.033,0.0292,0.0281,0.0261,0.0234,0.0223,0.0193,0.0164,0.0149,0.0138,0.0116,0.0113,0.0086,0.0121,0.0128,0.0134,0.0143,0.0126,0.0132,0.006,0.006,0.006,0,0,0.0371,0.0359,0.0362,0.0344,0.0324,0.0323,0.0285,0.0276,0.0278,0.022,0.0216,0.0189,0.0154,0.0153,0.0149,0.013,0.0141,0.0136,0.0142,0.0148,0.0128,0.0135,0.0141,0.0061,0.0061,0.0061,0,0,0.0403,0.0392,0.0406,0.0393,0.0372,0.0352,0.0354,0.0319,0.0309,0.0297,0.0265,0.0252,0.0215,0.0202,0.019,0.0222,0.0181,0.0215,0.0264,0.0247,0.0253,0.0258,0.0236,0.0238,0.0217,0.0217,0.0217,0,0.0419,0.0433,0.0407,0.0413,0.0414,0.0371,0.0387,0.0368,0.0334,0.0344,0.0307,0.028,0.0241,0.0259,0.0262,0.024,0.022,0.0237,0.0258,0.0262,0.0266,0.0241,0.0243,0.0221,0.0221,0.022,0.022,0,0.0456,0.0466,0.0475,0.0473,0.047,0.0477,0.0452,0.0452,0.043,0.0418,0.0425,0.0369,0.0356,0.0342,0.0305,0.0324,0.0298,0.0272,0.024,0.0279,0.025,0.025,0.0227,0.0226,0.0224,0.0223,0,0,0.0488,0.0501,0.0502,0.0524,0.0506,0.0515,0.0525,0.0538,0.0576,0.0523,0.056,0.051,0.0484,0.0466,0.0424,0.04,0.0395,0.0348,0.0345,0.0333,0.0356,0.0333,0.033,0.0373,0.0374,0.0374,0.0326,0,0.0524,0.0569,0.0558,0.0603,0.0628,0.0606,0.063,0.0637,0.0638,0.0662,0.0608,0.0618,0.0531,0.053,0.0492,0.0431,0.0399,0.041,0.0314,0.0311,0.0292,0.033,0.0305,0.026,0.0326,0.0326,0.0326,0,0.0558,0.059,0.0647,0.0696,0.0706,0.073,0.0789,0.0804,0.0824,0.0826,0.0816,0.0767,0.0729,0.0642,0.0544,0.0556,0.046,0.0395,0.0392,0.0341,0.0288,0.023,0.0257,0.0132,0.0325,0.0325,0.0325,0,0.0606,0.0651,0.0712,0.0722,0.0765,0.0803,0.0831,0.0868,0.092,0.0937,0.0966,0.0907,0.0889,0.0762,0.0603,0.0577,0.0492,0.0439,0.0326,0.0323,0.0268,0.0259,0.0168,0.0362,0.0362,0.0362,0.0362,0,0.0649,0.0693,0.0749,0.0781,0.0874,0.0878,0.0985,0.1004,0.1066,0.1145,0.1056,0.1094,0.0917,0.0833,0.0663,0.0507,0.0533,0.0347,0.0316,0.0296,0.0291,0.0152,0.0057,0.036,0.0361,0.0361,0.0361,0,0.0686,0.0714,0.0793,0.0868,0.0898,0.097,0.108,0.1168,0.1197,0.1293,0.1295,0.1254,0.1146,0.0953,0.0773,0.0608,0.0353,0.0372,0.036,0.0328,0.01,0.0011,-0.0119,-0.019,0.0245,0.0245,0.0244,0,0.0708,0.0753,0.0862,0.0928,0.0968,0.1075,0.1161,0.1231,0.133,0.1392,0.1449,0.1376,0.1334,0.1064,0.0768,0.0486,0.0339,0.0284,0.0221,0.0098,-0.0025,-0.0068,-0.0121,0.0176,0.0175,0.0174,0.0173,0,0.0756,0.0798,0.087,0.1005,0.1111,0.1231,0.1355,0.1448,0.1531,0.1594,0.1658,0.1622,0.1366,0.1091,0.0722,0.051,0.0182,0.0256,0.0131,-0.0079,-0.0136,-0.0221,0.0193,0.0165,0.0166,0.0167,0.0167,0.0167,0.0793,0.0859,0.0962,0.1092,0.1216,0.1363,0.1451,0.1582,0.1711,0.1798,0.1793,0.1768,0.1398,0.089,0.0592,0.0102,0.0104,-0.0051,-0.0147,-0.0175,-0.025,0.0151,0.0088,0.0088,0.0088,0.0088,0.0089,0,0.0831,0.0916,0.1041,0.1192,0.1326,0.1383,0.1564,0.165,0.1775,0.1892,0.1918,0.1754,0.1258,0.0797,0.0124,-0.0228,-0.0356,-0.0403,-0.0481,-0.0516,-0.0157,-0.0166,-0.0289,-0.0289,-0.0289,-0.0289,-0.0289,-0.0289,0.0856,0.0971,0.1042,0.1252,0.1357,0.1508,0.1596,0.1724,0.1842,0.1965,0.1999,0.2003,0.1699,0.045,-0.035,-0.0556,-0.0774,-0.0843,-0.0927,-0.07,-0.0674,-0.0649,-0.0677,-0.0905,-0.0906,-0.1234,-0.1238,-0.1241]}],[{"header":{"parameterUnit":"m.s-1","parameterCategory":2,"la1":30.2991,"la2":30.254,"lo1":-89.0895,"lo2":-89.0444,"dy":0.0017,"dx":0.0017,"nx":28,"ny":28,"refTime":"2024-09-27T21:00:00:Z","depth":"2","parameterNumber":2,"parameterNumberName":"U-component_of_CURRENTS"},"data":[0,0,0,0,0,0,0,0,0,0,0,0,0,0,0,0,0,0,0,0,0,0,0,0,0,0,0,0,0,0,0,0,0,0,0,0,0,0,0,0,0,0,0,0,0,0,0,0,0,0,0,0,0,0,0,0,0,0,0.2471,0.2472,0,0.2489,0.2489,0.2489,0.2477,0.2477,0.2477,0.2477,0.2463,0.2463,0.2462,0,0,0,0,0,0,0,0,0,0,0,0,0,0.2415,0.2416,0.2471,0.2472,0.2472,0.2489,0.2489,0.2489,0.2477,0.2477,0.2477,0.2477,0.2463,0.2463,0.2462,0,0,0,0,0,0,0,0,0,0,0,0,0,0.2433,0.2416,0.2471,0.2472,0.2472,0.2489,0.2489,0.2489,0.2477,0.2477,0.2477,0.2476,0.2463,0.2463,0.2462,0.2465,0,0,0.2461,0.2461,0,0,0,0,0,0,0,0,0.2432,0.2434,0.2471,0.2472,0.2472,0.2484,0.2464,0.2481,0.2477,0.2471,0.2477,0.2476,0.247,0.2469,0.2468,0.2465,0.2464,0.2461,0.2461,0.2461,0.2461,0,0,0,0,0,0,0,0.2431,0.2434,0.2474,0.2472,0.2473,0.2467,0.2469,0.2467,0.2468,0.2471,0.2472,0.248,0.2469,0.2468,0.2467,0.2464,0.2461,0.2461,0.2461,0.2461,0.2565,0.2568,0,0,0,0,0,0,0.2438,0.2433,0.2474,0.2475,0.2456,0.2469,0.2471,0.2477,0.2469,0.2468,0.248,0.248,0.2469,0.2467,0.2467,0.2537,0.2461,0.2461,0.2461,0.2562,0.2565,0.2569,0,0,0,0,0,0,0.2436,0.2441,0.2473,0.2457,0.2462,0.247,0.2478,0.2478,0.2495,0.2476,0.2475,0.25,0.2468,0.2467,0.25,0.2533,0.2461,0.246,0.2558,0.2563,0.2567,0.2634,0,0,0,0,0,0,0.2435,0.244,0.2452,0.2458,0.2463,0.2496,0.2478,0.2478,0.2501,0.2501,0.2492,0.249,0.2468,0.2501,0.2499,0.2532,0.246,0.2555,0.256,0.2566,0.2628,0.264,0.265,0,0,0,0,0,0.2432,0.2447,0.2452,0.2458,0.2477,0.2497,0.2499,0.2501,0.2503,0.2515,0.2525,0.2491,0.2535,0.2503,0.25,0.2533,0.2552,0.2559,0.2565,0.2623,0.2638,0.265,0,0,0,0,0,0,0.2429,0.2448,0.2454,0.2474,0.2493,0.2497,0.2511,0.2517,0.2534,0.2539,0.252,0.2519,0.2558,0.2549,0.2514,0.2586,0.2541,0.2548,0.2586,0.26,0.2611,0.2625,0.246,0,0,0,0,0,0.2435,0.2454,0.247,0.2491,0.2501,0.2512,0.2524,0.253,0.2544,0.2551,0.255,0.2562,0.2582,0.2594,0.2599,0.2637,0.265,0.2664,0.2675,0.2684,0.2699,0.278,0.2799,0.259,0.259,0.259,0,0,0.244,0.2456,0.2466,0.2493,0.2505,0.2528,0.2518,0.2545,0.2576,0.2547,0.259,0.2594,0.2602,0.2643,0.2661,0.264,0.2748,0.2692,0.27,0.271,0.2789,0.2809,0.2827,0.2595,0.2594,0.2593,0,0,0.2458,0.2475,0.2493,0.2511,0.2542,0.2553,0.2569,0.2588,0.2609,0.2651,0.2648,0.2688,0.2702,0.2726,0.2738,0.2822,0.2801,0.2822,0.2891,0.2969,0.2986,0.3002,0.3025,0.3042,0.2833,0.2833,0.2833,0,0.2476,0.2489,0.2503,0.2526,0.2552,0.2569,0.26,0.2625,0.2658,0.2698,0.2676,0.2753,0.2747,0.2826,0.2852,0.2846,0.287,0.283,0.2982,0.2998,0.3013,0.3033,0.3051,0.2837,0.2837,0.2836,0.2836,0,0.2487,0.2515,0.253,0.2568,0.2599,0.2629,0.2668,0.2704,0.2733,0.277,0.2852,0.286,0.2913,0.2918,0.2905,0.3014,0.2989,0.298,0.2941,0.3038,0.3053,0.307,0.2843,0.2841,0.284,0.2839,0,0,0.2503,0.2535,0.2542,0.257,0.2626,0.2651,0.2719,0.2793,0.2857,0.2895,0.2983,0.3026,0.3047,0.3065,0.3064,0.3125,0.3231,0.3101,0.3103,0.3111,0.3376,0.3216,0.3218,0.3253,0.3257,0.326,0.3336,0,0.2519,0.2553,0.2576,0.2636,0.2665,0.2715,0.2782,0.2858,0.2923,0.3008,0.306,0.3131,0.3102,0.3131,0.3196,0.3221,0.3285,0.3209,0.3293,0.3295,0.3131,0.3237,0.3025,0.3063,0.3353,0.3356,0.3358,0,0.2518,0.2551,0.2595,0.2681,0.2702,0.2744,0.2864,0.2933,0.3063,0.312,0.3212,0.3245,0.334,0.3296,0.3416,0.337,0.339,0.3402,0.3405,0.3247,0.3168,0.3021,0.3084,0.3386,0.3384,0.3382,0.338,0,0.2497,0.2567,0.2603,0.2627,0.2723,0.2772,0.284,0.297,0.305,0.32,0.326,0.3381,0.3435,0.35,0.3513,0.3486,0.3624,0.3589,0.3465,0.3452,0.3282,0.3247,0.3698,0.3698,0.3697,0.3697,0.3697,0,0.249,0.2532,0.2594,0.2612,0.2696,0.2775,0.2883,0.2975,0.3113,0.3203,0.3319,0.3381,0.3496,0.3565,0.3573,0.3563,0.3682,0.3497,0.3479,0.3295,0.3261,0.3549,0.3531,0.37,0.3699,0.3699,0.3698,0,0.2461,0.2491,0.2548,0.2641,0.268,0.2743,0.2883,0.2958,0.3102,0.3214,0.326,0.3421,0.3498,0.3572,0.3674,0.3618,0.3633,0.3603,0.3344,0.3293,0.339,0.3375,0.3476,0.3472,0.3468,0.3464,0.3462,0,0.2445,0.246,0.255,0.2578,0.262,0.272,0.2786,0.294,0.3014,0.32,0.3238,0.3371,0.3396,0.3484,0.3474,0.3474,0.356,0.3243,0.3146,0.3404,0.3378,0.3368,0.3359,0.2951,0.2945,0.2939,0.2935,0,0.2425,0.2449,0.2486,0.2545,0.2599,0.2659,0.2757,0.2798,0.296,0.3033,0.3101,0.3133,0.3236,0.3145,0.3172,0.3137,0.3219,0.3123,0.3526,0.3013,0.2908,0.2881,0.289,0.2886,0.2891,0.2894,0.2897,0.2899,0.2409,0.2418,0.2451,0.2494,0.2547,0.2554,0.2545,0.263,0.2682,0.2737,0.2868,0.2845,0.2918,0.2822,0.2749,0.272,0.2915,0.2799,0.2818,0.2842,0.2741,0.2632,0.2538,0.2541,0.2543,0.2545,0.2547,0,0.2359,0.2365,0.2398,0.2405,0.2388,0.2462,0.2487,0.2439,0.2399,0.2506,0.2521,0.2345,0.2304,0.2381,0.2265,0.2243,0.2247,0.2149,0.2162,0.2213,0.2258,0.2127,0.1761,0.1758,0.1755,0.1753,0,0,0.2331,0.2311,0.2302,0.2227,0.2231,0.2158,0.212,0.2076,0.211,0.2045,0.2036,0.2209,0.2312,0.2008,0.1983,0.1854,0.2012,0.1782,0.2425,0.2493,0.2534,0.2656,0.2515,0,0,0,0,0]},{"header":{"parameterUnit":"m.s-1","parameterCategory":2,"la1":30.2991,"la2":30.254,"lo1":-89.0895,"lo2":-89.0444,"dy":0.0017,"dx":0.0017,"nx":28,"ny":28,"refTime":"2024-09-27T21:00:00:Z","depth":"2","parameterNumber":3,"parameterNumberName":"V-component_of_CURRENTS"},"data":[0,0,0,0,0,0,0,0,0,0,0,0,0,0,0,0,0,0,0,0,0,0,0,0,0,0,0,0,0,0,0,0,0,0,0,0,0,0,0,0,0,0,0,0,0,0,0,0,0,0,0,0,0,0,0,0,0,0,0.0185,0.0185,0,0.0116,0.0115,0.0115,0.0075,0.0075,0.0075,0.0075,0.0001,-0.0001,-0.0003,0,0,0,0,0,0,0,0,0,0,0,0,0,0.0226,0.0226,0.0185,0.0185,0.0184,0.0117,0.0115,0.0114,0.0075,0.0075,0.0075,0.0075,0.0002,-0.0,-0.0003,0,0,0,0,0,0,0,0,0,0,0,0,0,0.0187,0.0226,0.0185,0.0157,0.0154,0.0117,0.0115,0.0114,0.0075,0.0075,0.0075,0.0075,0.0003,-0.0,-0.0003,-0.0022,0,0,-0.0012,-0.0013,0,0,0,0,0,0,0,0,0.0189,0.0185,0.0162,0.0159,0.0156,0.0106,0.0103,0.0069,0.0075,0.0104,0.0075,0.0075,0.0037,0.0031,0.0016,-0.0025,-0.0028,-0.0012,-0.0014,-0.0016,-0.0016,0,0,0,0,0,0,0,0.0192,0.0188,0.0156,0.0162,0.0158,0.0129,0.0124,0.0096,0.007,0.0101,0.0099,0.0093,0.0035,0.0019,0.0014,-0.0029,-0.0012,-0.0015,-0.0017,-0.0018,-0.0069,-0.0069,0,0,0,0,0,0,0.0207,0.0191,0.0159,0.0155,0.0175,0.0129,0.0123,0.0121,0.007,0.0063,0.0094,0.0092,0.0024,0.0017,0.0011,0.0017,-0.0015,-0.0018,-0.002,-0.0069,-0.0069,-0.0068,0,0,0,0,0,0,0.0208,0.0205,0.0161,0.0172,0.0165,0.0128,0.0126,0.0119,0.0109,0.0065,0.0057,0.0091,0.0024,0.0015,-0.0003,0.0013,-0.002,-0.0022,-0.007,-0.0069,-0.0069,0.0009,0,0,0,0,0,0,0.0209,0.0205,0.0211,0.0173,0.0165,0.0149,0.0126,0.0118,0.0106,0.0103,0.006,0.0053,0.0023,0.0002,-0.0006,0.0008,-0.0025,-0.007,-0.007,-0.0069,0.0006,0.0012,0.0017,0,0,0,0,0,0.0211,0.0222,0.0212,0.0208,0.0173,0.015,0.0143,0.0116,0.0106,0.0106,0.0079,0.0054,0.0001,-0.0,-0.001,0.0004,-0.0071,-0.007,-0.0069,0.0003,0.0011,0.0017,0,0,0,0,0,0,0.0239,0.0218,0.0206,0.0208,0.0185,0.0144,0.0143,0.0123,0.0099,0.01,0.0058,0.0049,0.0038,0.0009,0.0008,-0.0009,-0.0038,-0.0039,0.002,0.0026,0.0032,0.0057,-0.0027,0,0,0,0,0,0.0249,0.0255,0.0223,0.0226,0.0217,0.0181,0.017,0.0152,0.0125,0.0115,0.0085,0.0055,0.0033,0.0021,-0.0007,-0.0016,-0.0045,-0.0013,-0.0008,-0.0002,0.0011,-0.0017,-0.0012,-0.0065,-0.0065,-0.0065,0,0,0.026,0.025,0.0252,0.0233,0.0213,0.0208,0.0174,0.0164,0.0165,0.0111,0.0105,0.0073,0.0034,0.0024,0.0017,0.0004,-0.0005,-0.0001,0.0004,0.0015,-0.0015,-0.001,-0.0005,-0.0065,-0.0065,-0.0065,0,0,0.0287,0.0277,0.029,0.0276,0.0256,0.0234,0.0236,0.0201,0.0192,0.0178,0.0144,0.0126,0.0084,0.0066,0.005,0.007,0.0026,0.0058,0.0111,0.0083,0.0088,0.0091,0.0054,0.0054,0.0064,0.0064,0.0064,0,0.0301,0.0313,0.0289,0.0295,0.0294,0.0252,0.0264,0.0245,0.021,0.0218,0.0188,0.0144,0.0106,0.0107,0.0112,0.0086,0.0058,0.0089,0.0092,0.0095,0.0098,0.0058,0.0057,0.0068,0.0067,0.0067,0.0066,0,0.0333,0.0342,0.0349,0.0348,0.0343,0.0346,0.032,0.0316,0.0298,0.0285,0.0279,0.0223,0.0203,0.0183,0.0151,0.0157,0.0126,0.0102,0.0079,0.0108,0.0064,0.0061,0.0073,0.0072,0.0071,0.007,0,0,0.0359,0.0372,0.0373,0.0394,0.0375,0.0379,0.0385,0.039,0.0421,0.0369,0.0395,0.0341,0.0318,0.0298,0.0253,0.0224,0.0206,0.0177,0.0174,0.0148,0.0139,0.0097,0.0089,0.0183,0.0183,0.0183,0.0099,0,0.0391,0.0433,0.0423,0.046,0.0482,0.0458,0.0477,0.0478,0.0474,0.0487,0.0431,0.0433,0.036,0.0357,0.0316,0.0241,0.0204,0.0231,0.0108,0.0104,0.007,0.0087,0.0112,0.0038,0.0096,0.0095,0.0095,0,0.0419,0.0451,0.0503,0.0545,0.0553,0.0572,0.0617,0.0629,0.0635,0.0633,0.0615,0.0567,0.0522,0.0451,0.0332,0.0353,0.0256,0.0184,0.0178,0.0115,0.0058,0.0018,0.003,0.0089,0.009,0.009,0.0091,0,0.0462,0.0503,0.0559,0.0568,0.0605,0.0638,0.0661,0.0687,0.0731,0.0735,0.0757,0.0686,0.0663,0.0532,0.037,0.0355,0.0231,0.0189,0.0056,0.0051,0.0036,0.003,0.0103,0.0103,0.0103,0.0104,0.0104,0,0.0497,0.0538,0.0594,0.0623,0.071,0.0712,0.0808,0.0818,0.0863,0.0928,0.0844,0.0861,0.0684,0.0583,0.0414,0.0231,0.026,0.0071,0.0032,0.0061,0.0059,0.0076,0.0074,0.01,0.0101,0.0102,0.0102,0,0.0528,0.0556,0.063,0.0701,0.0733,0.08,0.0902,0.0976,0.0997,0.1072,0.1073,0.1006,0.0872,0.0673,0.047,0.0306,0.0122,0.0046,0.0086,0.0053,-0.0055,-0.0052,-0.011,-0.0112,-0.0113,-0.0115,-0.0116,0,0.0545,0.0589,0.0697,0.0761,0.08,0.0904,0.0986,0.1042,0.1123,0.1158,0.1196,0.1097,0.1018,0.07,0.0423,0.0128,0.01,-0.0045,-0.0076,-0.0042,-0.0074,-0.0069,-0.0063,-0.0072,-0.0072,-0.0073,-0.0074,0,0.0586,0.0628,0.0697,0.0836,0.0937,0.1048,0.1162,0.1239,0.1304,0.1345,0.1359,0.129,0.1008,0.0726,0.035,0.0148,0.0001,-0.0069,-0.0029,-0.0021,-0.0013,-0.0042,-0.0037,-0.0079,-0.0078,-0.0078,-0.0078,-0.0078,0.0622,0.0684,0.0788,0.0916,0.1036,0.1165,0.1249,0.1356,0.1456,0.1511,0.1464,0.1374,0.1078,0.0591,0.0266,-0.0052,-0.0046,-0.017,-0.0165,-0.016,-0.014,-0.0135,-0.0222,-0.0222,-0.0222,-0.0222,-0.0222,0,0.0663,0.0743,0.0862,0.101,0.1135,0.1194,0.135,0.1422,0.1516,0.1582,0.157,0.127,0.0953,0.0625,0.015,-0.0158,-0.017,-0.0254,-0.0191,-0.0184,-0.0178,-0.0157,-0.0244,-0.0245,-0.0245,-0.0246,0,0,0.0691,0.0802,0.0865,0.1062,0.1167,0.1314,0.1391,0.1489,0.1566,0.16,0.1572,0.1486,0.1071,0.0725,0.0318,0.0051,0.0003,-0.0012,0.0035,0.0165,0.0175,-0.0105,-0.0061,0,0,0,0,0]}],[{"header":{"parameterUnit":"m.s-1","parameterCategory":2,"la1":30.2991,"la2":30.254,"lo1":-89.0895,"lo2":-89.0444,"dy":0.0017,"dx":0.0017,"nx":28,"ny":28,"refTime":"2024-09-27T21:00:00:Z","depth":"4","parameterNumber":2,"parameterNumberName":"U-component_of_CURRENTS"},"data":[0,0,0,0,0,0,0,0,0,0,0,0,0,0,0,0,0,0,0,0,0,0,0,0,0,0,0,0,0,0,0,0,0,0,0,0,0,0,0,0,0,0,0,0,0,0,0,0,0,0,0,0,0,0,0,0,0,0,0.1369,0.1369,0,0.1416,0.1416,0.1417,0.1455,0.1456,0.1457,0.1457,0.1508,0.1509,0.151,0,0,0,0,0,0,0,0,0,0,0,0,0,0.1304,0.1304,0.1369,0.1369,0.137,0.1416,0.1416,0.1417,0.1455,0.1456,0.1457,0.1458,0.1508,0.1509,0.151,0,0,0,0,0,0,0,0,0,0,0,0,0,0.1337,0.1305,0.1368,0.1397,0.14,0.1416,0.1416,0.1417,0.1455,0.1456,0.1457,0.1458,0.1508,0.1509,0.151,0.1498,0,0,0.1513,0.1514,0,0,0,0,0,0,0,0,0.1335,0.1339,0.1392,0.1395,0.1398,0.1433,0.1412,0.1445,0.1455,0.1432,0.1457,0.1458,0.1484,0.1487,0.1491,0.1501,0.1503,0.1514,0.1514,0.1515,0.1515,0,0,0,0,0,0,0,0.1333,0.1337,0.1385,0.1393,0.1397,0.1404,0.141,0.1418,0.145,0.1434,0.1437,0.1446,0.1486,0.1489,0.1492,0.1504,0.1514,0.1515,0.1515,0.1516,0.16,0.1601,0,0,0,0,0,0,0.1331,0.1335,0.1384,0.1387,0.1371,0.1405,0.1411,0.1419,0.145,0.1457,0.1445,0.1448,0.1487,0.1491,0.1494,0.1576,0.1515,0.1516,0.1517,0.1598,0.16,0.1602,0,0,0,0,0,0,0.133,0.1335,0.1382,0.1364,0.1371,0.1405,0.1414,0.1419,0.1459,0.1459,0.1465,0.1483,0.1488,0.1493,0.1519,0.1575,0.1516,0.1517,0.1596,0.1599,0.1601,0.168,0,0,0,0,0,0,0.1327,0.1334,0.1354,0.1364,0.1372,0.1413,0.1413,0.142,0.1462,0.1466,0.1493,0.1497,0.1489,0.1518,0.152,0.1575,0.1518,0.1594,0.1597,0.16,0.1675,0.1684,0.1692,0,0,0,0,0,0.1325,0.1342,0.1354,0.1361,0.1393,0.1414,0.142,0.1445,0.1463,0.1484,0.1495,0.1498,0.1539,0.1519,0.1522,0.1579,0.1593,0.1596,0.16,0.1671,0.1682,0.1692,0,0,0,0,0,0,0.1326,0.1348,0.1362,0.1387,0.1411,0.1422,0.145,0.1466,0.1492,0.1507,0.1505,0.1509,0.1561,0.155,0.1529,0.1611,0.1572,0.1576,0.1625,0.1636,0.1644,0.1654,0.1519,0,0,0,0,0,0.1335,0.1358,0.1376,0.1402,0.1418,0.1442,0.1461,0.1479,0.1496,0.1512,0.1528,0.1548,0.1572,0.1587,0.1602,0.1636,0.1635,0.1678,0.1686,0.1694,0.1704,0.1729,0.1741,0.1613,0.1613,0.1613,0,0,0.1343,0.136,0.1374,0.1405,0.1429,0.1447,0.1457,0.1497,0.1516,0.1511,0.1554,0.1582,0.1587,0.1631,0.1655,0.1633,0.1733,0.1698,0.1704,0.1711,0.1734,0.1746,0.1758,0.1615,0.1615,0.1614,0,0,0.1356,0.1389,0.1407,0.1428,0.147,0.1481,0.1501,0.1533,0.1557,0.1595,0.1605,0.1657,0.1687,0.1704,0.1714,0.1776,0.178,0.1799,0.185,0.1875,0.1885,0.1895,0.1924,0.1935,0.18,0.18,0.18,0,0.136,0.1394,0.1418,0.1438,0.1462,0.1498,0.1521,0.1542,0.158,0.1614,0.1622,0.1712,0.172,0.1778,0.1806,0.1799,0.1815,0.1811,0.1886,0.1895,0.1904,0.1931,0.1943,0.1804,0.1804,0.1803,0.1803,0,0.1382,0.1416,0.1434,0.1467,0.149,0.1527,0.1551,0.1598,0.1643,0.1671,0.1762,0.1783,0.1846,0.1863,0.1855,0.1933,0.1928,0.1897,0.186,0.1921,0.1946,0.1957,0.181,0.1809,0.1807,0.1806,0,0,0.1358,0.1433,0.1442,0.1469,0.1517,0.1535,0.1583,0.164,0.1698,0.1756,0.1836,0.1893,0.1947,0.1962,0.1979,0.2,0.2077,0.1986,0.1985,0.2016,0.215,0.1979,0.1974,0.2066,0.2068,0.207,0.2149,0,0.137,0.1418,0.1453,0.15,0.1522,0.1578,0.1619,0.1677,0.1743,0.1828,0.1889,0.1975,0.1969,0.2036,0.2058,0.2081,0.2108,0.206,0.2085,0.2086,0.1927,0.198,0.2076,0.2157,0.2159,0.2161,0.2162,0,0.137,0.1405,0.1458,0.153,0.1549,0.1591,0.1692,0.1733,0.1846,0.1912,0.2016,0.2073,0.2161,0.2133,0.2204,0.2181,0.2182,0.2177,0.2179,0.1997,0.1933,0.2079,0.2181,0.2179,0.2178,0.2177,0.2176,0,0.1335,0.1404,0.1456,0.1478,0.156,0.162,0.1678,0.1779,0.1836,0.1989,0.2069,0.2173,0.2248,0.2271,0.2268,0.2267,0.2304,0.2295,0.2139,0.2128,0.2225,0.2213,0.233,0.233,0.233,0.233,0.233,0,0.1318,0.1357,0.1459,0.1487,0.1561,0.162,0.1719,0.1805,0.1929,0.2004,0.2125,0.2195,0.2287,0.2313,0.2304,0.2239,0.2337,0.216,0.2135,0.2257,0.2249,0.2233,0.222,0.2333,0.2332,0.2332,0.2331,0,0.1256,0.1334,0.1388,0.1501,0.155,0.1598,0.1738,0.1792,0.1937,0.2044,0.2108,0.2244,0.2295,0.2321,0.2354,0.2267,0.223,0.2172,0.2308,0.2288,0.2047,0.2038,0.2062,0.2056,0.2052,0.2048,0.2045,0,0.1232,0.1256,0.1383,0.1424,0.1489,0.1581,0.1638,0.1789,0.1839,0.2039,0.2067,0.2195,0.2259,0.2171,0.2209,0.2179,0.2131,0.2106,0.2081,0.2045,0.2019,0.2018,0.2015,0.2037,0.2036,0.2035,0.2034,0,0.1155,0.1215,0.1263,0.1353,0.143,0.1492,0.1593,0.1635,0.1793,0.1935,0.2002,0.2043,0.2078,0.209,0.2051,0.2021,0.2127,0.2058,0.2068,0.2045,0.2016,0.1994,0.1997,0.2018,0.202,0.2022,0.2023,0,0.1101,0.1112,0.1189,0.1263,0.1346,0.1389,0.1456,0.152,0.1603,0.1823,0.1832,0.1953,0.2067,0.2005,0.1969,0.1924,0.1919,0.1851,0.1873,0.1891,0.1787,0.1722,0.162,0,0,0,0,0,0.1034,0.1044,0.109,0.1177,0.1249,0.1311,0.141,0.1471,0.1636,0.1636,0.174,0.1771,0.1785,0.183,0.1752,0.1883,0.1909,0.1781,0.1839,0.1929,0.1948,0.1835,0,0,0,0,0,0,0.099,0.1021,0.105,0.1082,0.1135,0.1204,0.1271,0.1376,0.1377,0.1548,0.1553,0.1673,0.169,0.1827,0.1731,0.1739,0.1736,0.1846,0.1841,0.1919,0.1935,0.195,0.184,0,0,0,0,0]},{"header":{"parameterUnit":"m.s-1","parameterCategory":2,"la1":30.2991,"la2":30.254,"lo1":-89.0895,"lo2":-89.0444,"dy":0.0017,"dx":0.0017,"nx":28,"ny":28,"refTime":"2024-09-27T21:00:00:Z","depth":"4","parameterNumber":3,"parameterNumberName":"V-component_of_CURRENTS"},"data":[0,0,0,0,0,0,0,0,0,0,0,0,0,0,0,0,0,0,0,0,0,0,0,0,0,0,0,0,0,0,0,0,0,0,0,0,0,0,0,0,0,0,0,0,0,0,0,0,0,0,0,0,0,0,0,0,0,0,0.0081,0.008,0,0.0032,0.0031,0.003,0.0013,0.0013,0.0013,0.0013,-0.0052,-0.0054,-0.0056,0,0,0,0,0,0,0,0,0,0,0,0,0,0.0114,0.0114,0.0081,0.008,0.008,0.0032,0.0031,0.003,0.0013,0.0013,0.0013,0.0014,-0.0051,-0.0053,-0.0056,0,0,0,0,0,0,0,0,0,0,0,0,0,0.0085,0.0114,0.0081,0.0066,0.0064,0.0032,0.0031,0.003,0.0013,0.0013,0.0013,0.0014,-0.005,-0.0053,-0.0056,-0.0083,0,0,-0.0065,-0.0066,0,0,0,0,0,0,0,0,0.0087,0.0084,0.0069,0.0067,0.0065,0.003,0.0019,-0.0008,0.0012,0.0031,0.0013,0.0014,-0.0026,-0.0031,-0.0042,-0.0086,-0.0088,-0.0065,-0.0067,-0.0069,-0.0069,0,0,0,0,0,0,0,0.0089,0.0085,0.006,0.0068,0.0066,0.0046,0.0043,0.0013,-0.0,0.0029,0.0028,0.0024,-0.0027,-0.0039,-0.0044,-0.0089,-0.0065,-0.0068,-0.007,-0.0071,-0.0156,-0.0156,0,0,0,0,0,0,0.0099,0.0088,0.0062,0.0059,0.0078,0.0046,0.0042,0.004,0.0001,-0.0005,0.0024,0.0024,-0.0034,-0.004,-0.0046,-0.006,-0.0068,-0.0071,-0.0073,-0.0155,-0.0156,-0.0156,0,0,0,0,0,0,0.01,0.0097,0.0064,0.0073,0.0067,0.0045,0.0043,0.0039,0.0031,-0.0003,-0.0009,0.0021,-0.0034,-0.0042,-0.0068,-0.0063,-0.0073,-0.0075,-0.0155,-0.0156,-0.0156,-0.01,0,0,0,0,0,0,0.0101,0.0098,0.0101,0.0074,0.0067,0.0051,0.0042,0.0037,0.0028,0.0027,-0.0008,-0.0013,-0.0034,-0.0064,-0.0071,-0.0067,-0.0078,-0.0154,-0.0155,-0.0156,-0.0101,-0.0099,-0.0096,0,0,0,0,0,0.0102,0.0106,0.0101,0.0098,0.0072,0.0051,0.0046,0.003,0.0028,0.0025,0.0001,-0.0012,-0.0075,-0.0066,-0.0075,-0.0072,-0.0154,-0.0155,-0.0156,-0.0102,-0.0099,-0.0096,0,0,0,0,0,0,0.0118,0.0104,0.0098,0.0096,0.0078,0.0049,0.0046,0.0033,0.0011,0.0013,-0.0018,-0.0026,-0.0048,-0.0073,-0.0063,-0.0102,-0.0117,-0.012,-0.0073,-0.007,-0.0068,-0.0046,-0.008,0,0,0,0,0,0.0124,0.0128,0.0104,0.0103,0.0096,0.0071,0.0062,0.0051,0.0028,0.002,-0.0006,-0.0035,-0.0061,-0.0075,-0.0103,-0.0125,-0.0154,-0.0131,-0.0128,-0.0126,-0.0116,-0.0161,-0.0162,-0.016,-0.016,-0.016,0,0,0.0129,0.0123,0.0124,0.0107,0.0093,0.0087,0.0067,0.0057,0.0053,0.0015,0.0002,-0.0028,-0.0066,-0.0087,-0.0099,-0.0105,-0.0144,-0.0127,-0.0124,-0.0116,-0.0162,-0.0162,-0.0162,-0.0161,-0.016,-0.016,0,0,0.0144,0.0137,0.0145,0.0134,0.0119,0.0102,0.0102,0.0074,0.0065,0.0044,0.0018,-0.0007,-0.005,-0.0073,-0.0091,-0.0096,-0.013,-0.0108,-0.0075,-0.012,-0.012,-0.012,-0.016,-0.0165,-0.0105,-0.0105,-0.0105,0,0.0149,0.0159,0.0142,0.0145,0.0143,0.0112,0.0117,0.0098,0.0066,0.0061,0.0048,-0.0011,-0.0043,-0.0064,-0.0063,-0.0088,-0.0118,-0.0078,-0.0114,-0.0115,-0.0117,-0.0158,-0.0164,-0.0103,-0.0103,-0.0103,-0.0103,0,0.0169,0.0176,0.018,0.0178,0.0169,0.0169,0.0144,0.0136,0.012,0.01,0.0075,0.0028,-0.0002,-0.0021,-0.0042,-0.0064,-0.0084,-0.0105,-0.0115,-0.0113,-0.0157,-0.0164,-0.0099,-0.01,-0.0101,-0.0101,0,0,0.0178,0.0193,0.0194,0.0206,0.019,0.0187,0.0183,0.0171,0.0177,0.0136,0.0131,0.0083,0.0062,0.004,0.0005,-0.0032,-0.007,-0.0064,-0.0068,-0.0091,-0.0166,-0.0156,-0.0163,-0.0096,-0.0096,-0.0097,-0.0193,0,0.0198,0.0225,0.0221,0.0241,0.0252,0.0234,0.0235,0.0221,0.0202,0.0187,0.0137,0.0119,0.0083,0.0076,0.0031,-0.0042,-0.0085,-0.0042,-0.0175,-0.0178,-0.016,-0.017,-0.01,-0.0198,-0.02,-0.0201,-0.0202,0,0.0215,0.0235,0.0267,0.0288,0.0291,0.0301,0.031,0.0305,0.0277,0.0264,0.0234,0.0192,0.0143,0.0105,-0.0014,0.0017,-0.0065,-0.013,-0.0135,-0.0147,-0.0181,-0.0203,-0.0215,-0.0214,-0.0213,-0.0212,-0.0211,0,0.0237,0.0263,0.0298,0.0304,0.032,0.0341,0.0347,0.0336,0.0346,0.0319,0.0319,0.0246,0.0214,0.0107,-0.0022,-0.0016,-0.0169,-0.0182,-0.0255,-0.0256,-0.0259,-0.0258,-0.0275,-0.0275,-0.0275,-0.0275,-0.0274,0,0.0258,0.0281,0.0321,0.0341,0.039,0.0382,0.0426,0.0422,0.0419,0.0434,0.0368,0.0352,0.0213,0.0109,-0.0012,-0.0152,-0.0165,-0.0247,-0.0279,-0.0235,-0.023,-0.0265,-0.0262,-0.0278,-0.0278,-0.0277,-0.0276,0,0.0268,0.0293,0.0339,0.0383,0.0406,0.044,0.0491,0.0513,0.0509,0.0524,0.0521,0.0429,0.0305,0.0147,-0.0038,-0.0128,-0.0272,-0.0327,-0.0268,-0.0296,-0.0331,-0.0325,-0.0397,-0.0398,-0.0398,-0.0398,-0.0399,0,0.0276,0.0304,0.0378,0.042,0.0449,0.0506,0.0544,0.0561,0.058,0.0569,0.0566,0.0465,0.0388,0.0138,-0.0036,-0.0266,-0.0302,-0.0373,-0.0344,-0.0319,-0.0343,-0.0336,-0.0329,-0.0399,-0.0399,-0.04,-0.04,0,0.029,0.0322,0.0363,0.0454,0.0515,0.0575,0.0628,0.0655,0.0667,0.0665,0.0624,0.0507,0.0355,0.0157,-0.003,-0.0199,-0.0318,-0.0377,-0.0377,-0.0351,-0.0322,-0.0344,-0.0337,-0.0401,-0.0401,-0.0401,-0.0401,0,0.0304,0.0338,0.0403,0.0484,0.0562,0.0625,0.0652,0.0678,0.0701,0.0691,0.0672,0.0522,0.0431,0.0189,0.0012,-0.0145,-0.0175,-0.0214,-0.0223,-0.0224,-0.0145,-0.0082,-0.011,0,0,0,0,0,0.0314,0.0359,0.0427,0.0521,0.0596,0.0646,0.0696,0.0709,0.0732,0.0719,0.0706,0.0572,0.0343,0.0224,0.0072,-0.0012,-0.0222,-0.0197,-0.0276,-0.0408,-0.0407,-0.0342,0,0,0,0,0,0,0.0324,0.0384,0.0424,0.0536,0.061,0.069,0.073,0.0739,0.0724,0.0726,0.0596,0.0554,0.0309,0.0445,0.0081,0.0029,-0.0038,-0.0308,-0.0311,-0.0409,-0.0408,-0.0406,-0.034,0,0,0,0,0]}]]